Regional Weather Roundup
Issued by NWS Bismarck, ND

Home | Current Version | Previous Version | Text Only | Print | Product List | Glossary On
Versions: 1 2 3 4 5 6 7 8 9 10 11 12 13 14 15 16 17 18 19 20 21 22 23 24 25 26 27 28 29 30 31 32 33 34 35 36 37 38 39 40 41 42 43 44 45 46 47 48 49 50
000
ASUS43 KBIS 290310
RWRBIS

NWR BROADCAST TEXT
NATIONAL WEATHER SERVICE BISMARCK ND
1000 PM CDT SUN MAY 28 2017

NOTE: "FAIR" INDICATES FEW OR NO CLOUDS BELOW 12,000 FEET WITH NO
SIGNIFICANT WEATHER AND/OR OBSTRUCTIONS TO VISIBILITY.


CITY           SKY/WX    TMP DP  RH WIND       PRES   REMARKS
WILLISTON      FAIR      52  40  63 NW7       30.03S
MINOT          CLOUDY    56  43  61 NW18G28   29.93S
MINOT AFB      MOCLDY    54  45  73 N15       29.93R
BISMARCK       FAIR      58  41  53 NW10      29.94R
DICKINSON      FAIR      54  35  48 N14G23    30.00R
GARRISON         N/A     53  41  63 NW13      29.95R
HETTINGER ARPT FAIR      54  32  43 NW9       30.01R
JAMESTOWN      LGT RAIN  52  48  86 NW9       29.85R
HAZEN          FAIR      54  41  62 NW9       29.99S
LINTON         MOCLDY    55  43  62 NW10      29.95R
MANDAN         FAIR      55  39  54 NW12      29.95R
STANLEY        FAIR      54  43  66 N10       30.01S
TIOGA          FAIR      54  41  62 N13       30.03R
WATFORD CITY   FAIR      54  39  58 N7        30.02S
$$

CITY           SKY/WX    TMP DP  RH WIND       PRES   REMARKS
GRAND FORKS    CLOUDY    54  49  83 NW15      29.78R
GRAND FORKS AF CLOUDY    52  50  93 N17G25    29.80R
DEVILS LAKE    CLOUDY    54  46  74 N17G23    29.85R
FARGO          CLOUDY    55  50  83 NW10      29.79R
CAVALIER       CLOUDY    52  48  87 NW14G23   29.79R
GRAFTON        CLOUDY    52  50  93 NW16G24   29.81R
GWINNER        CLEAR     54  46  76 MISG      29.84R
LANGDON        CLOUDY    50  50 100 NW17      29.83R
ROLLA          CLOUDY    50  48  93 NW9       29.87S
$$

CITY           SKY/WX    TMP DP  RH WIND       PRES   REMARKS
ABERDEEN       FAIR      54  41  61 N3        29.88R
MOBRIDGE       FAIR      62  33  33 N13       29.90R
BUFFALO          N/A     58  34  40 N15       29.98R
RAPID CITY     FAIR      56  42  59 NW9       30.05R
GLASGOW        FAIR      62  25  24 N13       30.10R
SIDNEY         FAIR      57  37  47 N9        30.05R
WOLF POINT     FAIR      62  29  28 N12       30.08R
GLENDIVE       FAIR      61  27  27 N15       30.07R
MILES CITY     FAIR      66  25  21 N14       30.09R
BAKER          FAIR      58  30  34 NW12      30.05S
$$

CITY           SKY/WX    TMP DP  RH WIND       PRES   REMARKS
BILLINGS       FAIR      61  46  57 SW12      30.20R
GREAT FALLS    MOCLDY    56  51  84 SW7       30.23R
ESTEVAN        PTCLDY    54  41  62 NW21G31   30.01R
$$





USA.gov is the U.S. government's official web portal to all federal, state and local government web resources and services.